Hourly Data Report for September 03, 2017

All times are specified in Local Standard Time (LST). Add 1 hour to adjust for Daylight Saving Time where and when it is observed.

ARCTIC BAY CS
NUNAVUT

72°59'34.000" N
85°00'44.000" W
10.00 m
2400404
71592
XAT

Download Data

Hourly Data (September 2017)
Hourly Data Report for September 3, 2017
Temp Definition
°C
Dew Point Temp Definition
°C
Rel Hum Definition
%
Wind Dir Definition
10's deg

Wind Spd Definition
km/h
Visibility Definition
km
Stn Press Definition
kPa
Hmdx Definition


Wind Chill Definition


Weather Definition


TIME
00:00 0.6 -2.2 81 6 14   101.04     LegendNANA
01:00 0.5 -2.3 82 7 13   101.03     LegendNANA
02:00 0.7 -2.3 81 7 12   101.03     LegendNANA
03:00 0.7 -2.2 81 7 12   101.01     LegendNANA
04:00 0.8 -2.2 80 7 9   101.02     LegendNANA
05:00 0.6 -2.0 83 6 5   101.00     LegendNANA
06:00 0.8 -1.9 82 36 3   101.00     LegendNANA
07:00 0.7 -1.4 86 33 3   101.01     LegendNANA
08:00 1.2 -1.5 82 12 2   101.02     LegendNANA
09:00 1.4 -1.4 82 0 1   101.01     LegendNANA
10:00 1.7 -1.3 80 33 5   101.00     LegendNANA
11:00 2.0 -1.2 79 32 9   100.98     LegendNANA
12:00 1.9 -1.2 80 31 13   100.96     LegendNANA
13:00 2.2 -1.1 79 32 13   100.97     LegendNANA
14:00 2.1 -1.9 75 31 13   101.01     LegendNANA
15:00 2.5 -1.5 75 32 18   101.04     LegendNANA
16:00 2.3 -1.8 74 31 16   101.06     LegendNANA
17:00 2.0 -2.3 73 1 19   101.08     LegendNANA
18:00 1.7 -1.9 77 33 18   101.09     LegendNANA
19:00 1.4 -2.2 77 35 11   101.10     LegendNANA
20:00 0.9 -2.2 80 32 10   101.13     LegendNANA
21:00 0.6 -2.9 77 36 8   101.11     LegendNANA
22:00 0.5 -3.0 77 1 8   101.12     LegendNANA
23:00 0.7 -3.1 75 34 3   101.12     LegendNANA

Notes on Data Quality.

Legend

  • E = Estimated
  • M = Missing
  • NA = Not Available
  • ‡ = Partner data that is not subject to review by the National Climate Archives
Date modified: